TimeMST,TemperatureF,Dew PointF,Humidity,Sea Level PressureIn,VisibilityMPH,Wind Direction,Wind SpeedMPH,Gust SpeedMPH,PrecipitationIn,Events,Conditions,WindDirDegrees,DateUTC
12:53 AM,-9.0,-14.1,79,30.35,10.0,ESE,3.5,-,N/A,,Partly Cloudy,110,2013-12-04 07:53:00
1:53 AM,-11.0,-16.1,78,30.35,10.0,ESE,5.8,-,N/A,,Scattered Clouds,120,2013-12-04 08:53:00
2:53 AM,-9.0,-15.0,75,30.35,10.0,South,5.8,-,N/A,,Partly Cloudy,190,2013-12-04 09:53:00
3:53 AM,-11.0,-16.1,78,30.35,10.0,SE,3.5,-,N/A,,Scattered Clouds,140,2013-12-04 10:53:00
4:53 AM,-9.9,-16.1,74,30.36,10.0,SE,3.5,-,N/A,,Overcast,130,2013-12-04 11:53:00
5:53 AM,-9.0,-15.0,75,30.37,10.0,SE,4.6,-,N/A,,Overcast,130,2013-12-04 12:53:00
6:53 AM,-9.9,-16.1,74,30.39,10.0,Calm,Calm,-,N/A,,Clear,0,2013-12-04 13:53:00
7:53 AM,-11.9,-17.0,78,30.42,9.0,SSE,3.5,-,N/A,,Overcast,150,2013-12-04 14:53:00
8:41 AM,-9.4,-14.8,77,30.02,4.0,SE,3.5,-,N/A,,Haze,140,2013-12-04 15:41:00
8:53 AM,-9.0,-14.1,79,30.41,3.0,Calm,Calm,-,N/A,,Haze,0,2013-12-04 15:53:00
9:06 AM,-7.6,-14.8,71,30.03,6.0,SE,4.6,-,N/A,,Haze,130,2013-12-04 16:06:00
9:40 AM,-7.6,-13.0,77,30.03,4.0,Calm,Calm,-,N/A,,Haze,0,2013-12-04 16:40:00
9:53 AM,-7.1,-11.9,79,30.41,4.0,Calm,Calm,-,N/A,,Haze,0,2013-12-04 16:53:00
10:14 AM,-5.8,-11.2,77,30.04,5.0,Calm,Calm,-,N/A,,Haze,0,2013-12-04 17:14:00
10:36 AM,-5.8,-11.2,77,30.04,10.0,Calm,Calm,-,N/A,,Scattered Clouds,0,2013-12-04 17:36:00
10:53 AM,-4.0,-11.0,72,30.41,10.0,Calm,Calm,-,N/A,,Clear,0,2013-12-04 17:53:00
11:53 AM,-2.9,-9.9,72,30.39,10.0,Calm,Calm,-,N/A,,Partly Cloudy,0,2013-12-04 18:53:00
12:45 PM,-0.4,-9.4,66,30.01,9.0,SE,4.6,-,N/A,,Overcast,130,2013-12-04 19:45:00
12:53 PM,-0.9,-9.0,69,30.39,9.0,Calm,Calm,-,N/A,,Overcast,0,2013-12-04 19:53:00
1:53 PM,-0.0,-8.0,69,30.38,9.0,ESE,3.5,-,N/A,,Overcast,120,2013-12-04 20:53:00
2:53 PM,1.9,-8.0,63,30.36,10.0,WNW,9.2,-,N/A,,Overcast,290,2013-12-04 21:53:00
3:53 PM,1.0,-9.0,63,30.37,10.0,West,8.1,-,N/A,,Mostly Cloudy,270,2013-12-04 22:53:00
4:05 PM,1.4,-9.4,61,30.00,10.0,West,9.2,-,N/A,,Mostly Cloudy,270,2013-12-04 23:05:00
4:53 PM,-0.0,-11.0,60,30.38,10.0,West,5.8,-,N/A,,Overcast,270,2013-12-04 23:53:00
5:53 PM,-2.0,-11.0,66,30.39,10.0,Calm,Calm,-,N/A,,Overcast,0,2013-12-05 00:53:00
6:53 PM,-6.0,-11.9,75,30.42,10.0,South,4.6,-,N/A,,Overcast,170,2013-12-05 01:53:00
7:01 PM,-5.8,-11.2,77,30.01,10.0,South,5.8,-,N/A,,Overcast,170,2013-12-05 02:01:00
7:53 PM,-8.0,-14.1,75,30.44,10.0,ESE,3.5,-,N/A,,Mostly Cloudy,120,2013-12-05 02:53:00
8:50 PM,-9.4,-14.8,77,30.02,10.0,SE,3.5,-,N/A,,Mostly Cloudy,130,2013-12-05 03:50:00
8:53 PM,-9.0,-14.1,79,30.43,10.0,SE,3.5,-,N/A,,Mostly Cloudy,140,2013-12-05 03:53:00
9:00 PM,-9.4,-14.8,77,30.02,10.0,SE,4.6,-,N/A,,Scattered Clouds,140,2013-12-05 04:00:00
9:53 PM,-11.9,-18.0,74,30.45,10.0,SE,4.6,-,N/A,,Clear,140,2013-12-05 04:53:00
10:53 PM,-15.0,-20.0,78,30.45,10.0,South,3.5,-,N/A,,Clear,170,2013-12-05 05:53:00
11:53 PM,-17.0,-22.0,78,30.45,10.0,SE,5.8,-,N/A,,Clear,140,2013-12-05 06:53:00